Regional Weather Roundup
Issued by NWS

Home | Current Version | Previous Version | Graphics & Text | Print | Product List | Glossary On
Versions: 1 2 3 4 5 6 7 8 9 10 11 12 13 14 15 16 17 18 19 20 21 22 23 24 25 26 27 28 29 30 31 32 33 34 35 36 37 38 39 40 41 42 43 44 45 46 47 48 49
000
ASUS45 KBOU 231407
RWRCO

WEATHER ROUNDUP FOR COLORADO
NATIONAL WEATHER SERVICE DENVER/BOULDER CO
700 AM MST SUN NOV 23 2014

NOTE: "FAIR" INDICATES FEW OR NO CLOUDS BELOW 12000 FEET WITH NO
SIGNIFICANT WEATHER AND/OR OBSTRUCTIONS TO VISIBILITY.

COZ001>005-013-030-031-231500-
...NORTHWEST COLORADO...

CITY           SKY/WX    TMP DP  RH WIND       PRES   REMARKS
CRAIG          CLOUDY    25  21  85 N3        29.89R
HAYDEN         CLOUDY    25  19  80 W6        29.87R WCI  18
MEEKER         CLOUDY    23  19  85 E3        29.89R
MOUNT WERNER   NOT AVBL
STEAMBOAT SPGS CLOUDY    24  21  90 CALM      29.85R
WALDEN         CLEAR     10   5  79 SE9       29.79S WCI  -2
$$

COZ006>008-011-231500-
...WEST CENTRAL VALLEYS...

CITY           SKY/WX    TMP DP  RH WIND       PRES   REMARKS
GRAND JUNCTION CLOUDY    31  31 100 NE6       29.89R WCI  25
MONTROSE       CLOUDY    33  28  81 CALM      29.88R
EAGLE          MOCLDY    28  27  93 CALM      29.86R
RIFLE          MOCLDY    24  22  91 SE5       29.88R WCI  18
DELTA          PTCLDY    37  30  74 NE7       29.86R
NUCLA          PTCLDY    32  25  74 NW7       29.92S WCI  26
$$

COZ017>023-064>068-231500-
...SOUTHWEST COLORADO...

CITY           SKY/WX    TMP DP  RH WIND       PRES   REMARKS
DURANGO        PTCLDY    32  22  66 W20G29    29.79R WCI  20
CORTEZ         CLEAR     35  26  69 NW12G25   29.90R WCI  27
PAGOSA SPRINGS CLOUDY    31  31  99 CALM      29.78R
TELLURIDE      FLURRIES  23  20  85 W8G17     29.87R WCI  14
WOLF CREEK PAS CLOUDY    12  10  92 MISG      29.76R
$$

COZ009-010-012-014-032>034-037-058>063-231500-
...CENTRAL COLORADO...

CITY           SKY/WX    TMP DP  RH WIND       PRES   REMARKS
ASPEN          MOCLDY    24  22  91 N7        29.81R WCI  16
BUENA VISTA    CLOUDY    27  19  72 NW16      29.72S WCI  14
COPPER MTN     NOT AVBL
BERTHOUD PASS  CLOUDY     5   1  85 N13G35    29.72R WCI -12
COTTONWOOD PAS LGT SNOW  25  21  86 W5        29.72S WCI  19
GUNNISON       MOCLDY    27  21  80 W9        29.81R WCI  17
KREMMLING      CLOUDY    23  14  68 CALM      29.83R
LEADVILLE      CLOUDY    16  10  77 N16G23    29.75R WCI   1
MONARCH PASS   CLOUDY    14  10  85 MISG      29.82R
SALIDA         CLOUDY    30  25  80 NW9G21    29.82R WCI  22
SUNLIGHT       CLOUDY    18  14  86 NW3       29.83R
WILKERSON PASS CLOUDY    18  10  73 N9G21     29.73R WCI   6
$$

COZ069>075-231500-
...SAN LUIS VALLEY/SANGRE DE CRISTO MOUNTAINS...

CITY           SKY/WX    TMP DP  RH WIND       PRES   REMARKS
ALAMOSA        CLOUDY    30  21  69 NW5       29.71F WCI  25
LA VETA PASS   SNOW      21  19  93 NE6       29.72S VSB 1/4 WCI  14
SAGUACHE       MOCLDY    28  18  64 NW3       29.74R
$$

COZ035-036-038>040-231500-
...NORTHERN COLORADO FRONT RANGE...

CITY           SKY/WX    TMP DP  RH WIND       PRES   REMARKS
DENVER INTL AP CLOUDY    33  25  72 E5        29.75R WCI  29
DMNS CITY PARK   N/A     35  23  61 SE2G8     29.77R
AURORA         CLOUDY    33  24  71 E6        29.76R WCI  27
FRONT RANGE AP CLOUDY    34  27  75 CALM      29.75S
ERIE MUNI ARPT CLOUDY    35  22  59 E3        29.77R
BOULDER MUN AP CLOUDY    36  23  60 E7        29.76R
CENTENNIAL     FLURRIES  33  25  72 CALM      29.75R
BROOMFIELD     MOCLDY    36  23  60 E8        29.76R
FORT COLLINS   PTCLDY    32  21  64 N13       29.77R WCI  22
LONGMONT       PTCLDY    37  22  53 NE5       29.79R
$$

COZ041-046-047-076>085-087-088-231500-
...PIKES PEAK/PALMER DIVIDE AND SOUTHERN FOOTHILLS...

CITY           SKY/WX    TMP DP  RH WIND       PRES   REMARKS
COLO. SPRINGS  CLOUDY    32  23  69 NW14      29.73R WCI  22
A. F. ACADEMY  MOCLDY    28  23  80 NW16      29.72R WCI  17
ELLICOTT       NOT AVBL
FALCON         NOT AVBL
FORT CARSON    CLOUDY    32  26  77 N25G32    29.71R WCI  19
LIMON          CLOUDY    30  20  66 N17G28    29.72R WCI  18
MONUMENT HILL  CLOUDY    27  23  86 N9        29.73R WCI  17
TRINIDAD       CLOUDY    35  30  82 N13       29.71R WCI  26
$$

COZ042>045-048>051-090-091-231500-
...NORTHEAST COLORADO...

CITY           SKY/WX    TMP DP  RH WIND       PRES   REMARKS
GREELEY ARPT   MOCLDY    32  18  55 N10       29.77R WCI  24
AKRON          CLOUDY    34  16  47 N22       29.71R WCI  22
BURLINGTON     CLOUDY    40  14  34 N21G39    29.68R
WRAY           CLOUDY    41  15  34 NW20G30   29.69R
STERLING       CLOUDY    36  23  60 N10G16    29.72R
HOLYOKE        CLOUDY    41  19  42 NW23G30   29.68R
FORT MORGAN    CLOUDY    29  21  70 N10       29.73S WCI  20
$$

COZ086-089-092>099-231500-
...SOUTHEAST COLORADO...

CITY           SKY/WX    TMP DP  RH WIND       PRES   REMARKS
PUEBLO         CLOUDY    39  25  57 N20G36    29.71R
LA JUNTA       CLOUDY    39  30  70 N28G39    29.65R
LAMAR          CLOUDY    43  24  47 N24G39    29.60R
SPRINGFIELD      N/A     41  29  62 N25G36    29.61R
$$


USA.gov is the U.S. government's official web portal to all federal, state and local government web resources and services.